Weather History for Toledo Metcalf, OH

Change the Weather History Date:

Tuesday, November 12, 2013

  Actual Average (KTOL) Record (KTOL)
Temperature  
Mean Temperature 30 °F 43 °F  
Max Temperature 36 °F 52 °F 72 °F (1964)
Min Temperature 24 °F 35 °F 15 °F (1976)
Degree Days  
Heating Degree Days 34 22  
Month to date heating degree days 239  
Since 1 July heating degree days 765  
Cooling Degree Days 0 0  
Month to date cooling degree days 0  
Year to date cooling degree days 793  
Moisture  
Dew Point 18 °F    
Average Humidity 63    
Maximum Humidity 72    
Minimum Humidity 52    
Precipitation  
Precipitation 0.00 in 0.10 in 1.22 in (1992)
Month to date precipitation 1.08  
Year to date precipitation 29.78  
Snow  
Snow 0.00 in 0.00 in - ()
Month to date snowfall 0.4  
Since 1 July snowfall 0.6  
Since 1 September snowfall 0.6  
Snow Depth -    
Sea Level Pressure  
Sea Level Pressure 30.51 in    
Wind  
Wind Speed 12 mph (NW)    
Max Wind Speed 18 mph    
Max Gust Speed 21 mph    
Visibility 10 miles    
Events      
T = Trace of Precipitation, MM = Missing Value Source: NWS Daily Summary

Daily Weather History Graph

Daily Weather History Graph

Search for Another Location

Airport:

Trip Planner

Search our weather history database for the weather conditions in past years. The results will help you decide how hot, cold, wet, or windy it might be!

Date:

Astronomy

Nov. 12, 2013 Rise Set
Actual Time 7:19 AM EST 5:16 PM EST
Civil Twilight 6:49 AM EST 5:45 PM EST
Nautical Twilight 6:16 AM EST 6:19 PM EST
Astronomical Twilight 5:43 AM EST 6:51 PM EST
Moon 2:33 PM EST (11/12) 2:04 AM EST (11/12)
Length of Visible Light 10h 56m
Length of Day
9h 56m
Waxing Gibbous, 76% of the Moon is Illuminated
Nov 12
Waxing Gibbous
Nov 17
Full
Nov 25
Last Quarter
Dec 2
New
Dec 9
First Quarter

Hourly Weather History & Observations

Time (EST) Temp. Windchill Dew Point Humidity Pressure Visibility Wind Dir Wind Speed Gust Speed Precip Events Conditions
12:53 AM 30.0 °F 20.0 °F 19.9 °F 66% 30.35 in 10.0 mi NNW 12.7 mph - N/A   Partly Cloudy
1:53 AM 30.0 °F 21.7 °F 21.0 °F 69% 30.36 in 10.0 mi NNW 9.2 mph - N/A   Overcast
2:53 AM 28.9 °F 18.2 °F 19.9 °F 69% 30.39 in 10.0 mi NNW 13.8 mph - N/A   Mostly Cloudy
3:53 AM 27.0 °F 16.7 °F 17.1 °F 66% 30.40 in 10.0 mi NNW 11.5 mph - N/A   Mostly Cloudy
4:53 AM 26.1 °F 16.8 °F 15.1 °F 63% 30.43 in 10.0 mi NNW 9.2 mph 19.6 mph N/A   Clear
5:53 AM 25.0 °F 14.2 °F 15.1 °F 66% 30.45 in 10.0 mi NNW 11.5 mph - N/A   Clear
6:53 AM 25.0 °F 14.2 °F 17.1 °F 72% 30.48 in 10.0 mi NNW 11.5 mph - N/A   Clear
7:53 AM 25.0 °F 13.6 °F 17.1 °F 72% 30.52 in 10.0 mi NW 12.7 mph - N/A   Clear
8:53 AM 27.0 °F 16.1 °F 18.0 °F 69% 30.53 in 10.0 mi NW 12.7 mph - N/A   Clear
9:53 AM 28.9 °F 19.2 °F 19.0 °F 67% 30.55 in 10.0 mi NNW 11.5 mph - N/A   Clear
10:53 AM 32.0 °F 23.6 °F 19.9 °F 61% 30.56 in 10.0 mi NNW 10.4 mph 16.1 mph N/A   Clear
11:53 AM 32.0 °F 22.5 °F 19.9 °F 61% 30.56 in 10.0 mi NNW 12.7 mph - N/A   Clear
12:53 PM 34.0 °F 26.0 °F 21.9 °F 61% 30.55 in 10.0 mi NNW 10.4 mph 18.4 mph N/A   Partly Cloudy
1:53 PM 35.1 °F 24.5 °F 19.9 °F 54% 30.55 in 10.0 mi NW 18.4 mph - N/A   Mostly Cloudy
2:53 PM 36.0 °F 28.5 °F 21.0 °F 55% 30.55 in 10.0 mi NNW 10.4 mph - N/A   Overcast
3:53 PM 35.1 °F 25.5 °F 19.0 °F 52% 30.55 in 10.0 mi WNW 15.0 mph - N/A   Overcast
4:53 PM 33.1 °F 22.2 °F 17.1 °F 52% 30.56 in 10.0 mi NW 17.3 mph 20.7 mph N/A   Scattered Clouds
5:53 PM 28.9 °F 21.9 °F 17.1 °F 61% 30.54 in 10.0 mi WNW 6.9 mph - N/A   Partly Cloudy
6:53 PM 30.0 °F 20.5 °F 17.1 °F 59% 30.56 in 10.0 mi WNW 11.5 mph - N/A   Clear
7:53 PM 28.0 °F 19.3 °F 18.0 °F 66% 30.57 in 10.0 mi WNW 9.2 mph - N/A   Clear
8:53 PM 28.9 °F 19.2 °F 17.1 °F 61% 30.58 in 10.0 mi WNW 11.5 mph - N/A   Clear
9:53 PM 28.0 °F 18.1 °F 17.1 °F 63% 30.58 in 10.0 mi WNW 11.5 mph - N/A   Clear
10:53 PM 26.1 °F 18.4 °F 16.0 °F 66% 30.58 in 10.0 mi WNW 6.9 mph - N/A   Clear
11:53 PM 24.1 °F 16.0 °F 16.0 °F 71% 30.58 in 10.0 mi West 6.9 mph - N/A   Clear